Flag for Iran Weather past 2 weeks in Esfahãn, Iran

Now
77 °F

Clear.


Feels Like: 77 °F
Forecast: 61 / 93 °F
Wind: 5 mph from West

Location: Esfahan

Current Time: Aug 29, 2015 at 12:25:48 AM

Latest Report: Aug 29, 2015 at 12:00 AM


Visibility: 10 mi

Pressure: 30.09 "Hg (25.12 "Hg at 1576m altitude)

Humidity: 19%

Dew point: 32 °F

Location of EsfahãnLocation

Historic Weather in Esfahãn — Graph

°F

Esfahãn temperature yesterday

Maximum temperature yesterday: 95 °F (at 3:30 PM)
Minimum temperature yesterday: 57 °F (at 6:30 AM)
Average temperature yesterday: 78 °F

Past Weeks' High & Low Weather Summary

 TemperatureHumidityPressure
High100 °F (Aug 19, 4:00 PM)43% (Aug 28, 2:30 AM)30.12 "Hg (Aug 28, 2:30 AM)
Low54 °F (Aug 14, 6:00 AM)2% (Aug 24, 5:30 PM)29.80 "Hg (Aug 23, 5:00 PM)
Average81 °F12%30.00 "Hg
* Reported Aug 13 10:30 PM — Aug 28 11:00 PM, Esfahãn, Weather by CustomWeather, © 2015

Note: Actual official high and low records may vary slightly from our data, if they occured in-between our weather recording intervals... More about our weather records

Advertising

Esfahãn weather history for previous 24 hours

 ConditionsComfort  
Time TempWeatherWind HumidityBarometerVisibility
11:00 PM
Fri, Aug 28
81 °FClear.14 mph20%30.07 "Hg10 mi
10:30 PM81 °FClear.14 mph17%30.07 "Hg10 mi
10:00 PM82 °FClear.16 mph16%30.07 "Hg10 mi
9:30 PM82 °FClear.14 mph16%30.07 "Hg10 mi
9:00 PM82 °FPassing clouds.12 mph17%30.04 "HgN/A
8:30 PM84 °FPassing clouds.16 mph18%30.04 "HgN/A
8:00 PM86 °FPassing clouds.16 mph17%30.04 "HgN/A
7:30 PM88 °FPassing clouds.16 mph16%30.01 "HgN/A
7:00 PM90 °FPassing clouds.18 mph14%30.01 "HgN/A
6:30 PM93 °FPassing clouds.14 mph11%30.01 "HgN/A
6:00 PM95 °FPassing clouds.No wind6%30.01 "HgN/A
5:30 PM95 °FPassing clouds.12 mph6%30.01 "HgN/A
5:00 PM95 °FPassing clouds.5 mph6%30.01 "HgN/A
4:30 PM95 °FPassing clouds.5 mph5%30.01 "HgN/A
4:00 PM95 °FPassing clouds.No wind6%30.01 "HgN/A
3:30 PM95 °FPassing clouds.5 mph6%30.04 "HgN/A
3:00 PM93 °FSunny.7 mph7%30.04 "Hg10 mi
2:30 PM91 °FSunny.9 mph8%30.07 "Hg10 mi
2:00 PM91 °FSunny.5 mph9%30.07 "Hg10 mi
1:30 PM91 °FSunny.7 mph10%30.07 "Hg10 mi
1:00 PM90 °FSunny.7 mph12%30.07 "Hg10 mi
12:30 PM88 °FSunny.7 mph13%30.09 "Hg10 mi
12:00 PM86 °FSunny.5 mph13%30.09 "Hg10 mi
11:30 AM84 °FSunny.No wind16%30.09 "Hg10 mi
11:00 AM82 °FSunny.5 mph17%30.12 "Hg10 mi
10:30 AM79 °FSunny.7 mph23%30.12 "Hg10 mi
10:00 AM77 °FSunny.7 mph24%30.09 "Hg10 mi
9:30 AM72 °FClear.7 mph27%30.09 "Hg5 mi
9:00 AM70 °FClear.5 mph29%30.09 "Hg5 mi
8:30 AM68 °FHaze.7 mph30%30.09 "Hg2 mi
7:30 AM57 °FHaze.5 mph39%30.07 "Hg1 mi
7:00 AM59 °FHaze.No wind39%30.07 "Hg1 mi
6:30 AM57 °FHaze.5 mph41%30.07 "Hg2 mi
6:00 AM61 °FClear.5 mph39%30.07 "Hg5 mi
5:30 AM59 °FClear.5 mph39%30.07 "Hg10 mi
5:00 AM59 °FClear.7 mph36%30.07 "Hg10 mi
4:30 AM63 °FClear.No wind34%30.07 "Hg10 mi
4:00 AM64 °FClear.5 mph37%30.04 "Hg10 mi
3:30 AM66 °FClear.5 mph32%30.04 "Hg10 mi
3:00 AM64 °FClear.7 mph37%30.04 "Hg10 mi
2:30 AM64 °FClear.7 mph43%30.04 "Hg10 mi
2:00 AM66 °FClear.5 mph35%30.04 "Hg10 mi
1:30 AM70 °FClear.5 mph29%30.04 "Hg10 mi
1:00 AM72 °FClear.7 mph29%30.04 "Hg10 mi
12:30 AM72 °FClear.5 mph25%30.07 "Hg10 mi
12:00 AM73 °FClear.7 mph23%30.07 "Hg10 mi
Weather by CustomWeather, © 2015

See weather overviewHow to use our weather pages